Regional Weather Roundup
Issued by NWS

Home | Current Version | Previous Version | Graphics & Text | Print | Product List | Glossary On
Versions: 1 2 3 4 5 6 7 8 9 10 11 12 13 14 15 16 17 18 19 20 21 22 23 24 25 26 27 28 29 30 31 32 33 34 35 36 37 38 39 40 41 42 43 44 45 46 47 48 49 50
000
ASUS45 KCYS 192010
RWRWY

WYOMING REGIONAL WEATHER ROUNDUP
NATIONAL WEATHER SERVICE CHEYENNE WY
100 PM MST FRI DEC 19 2014

NOTE:  "FAIR" INDICATES FEW OR NO CLOUDS BELOW 12,000 FEET
WITH NO SIGNIFICANT WEATHER AND/OR OBSTRUCTIONS TO VISIBILITY.

WYZ001-192100-
YELLOWSTONE NATIONAL PARK

CITY           SKY/WX    TMP DP  RH WIND       PRES   REMARKS
LK YELLOWSTONE   N/A     27  20  75 VRB5      30.04F WCI  22
W YELLOWSTONE  NOT AVBL

$$
WYZ002>013-054>058-071-098>099-192100-
NORTHERN WYOMING

CITY           SKY/WX    TMP DP  RH WIND       PRES   REMARKS
JACKSON        CLOUDY    30  28  93 SW8       30.07F WCI  23
CODY           FAIR      43  21  42 SW15G25   29.89F
GREYBULL       FAIR      24  15  68 CALM      29.98F
WORLAND        FAIR      18  12  77 CALM      29.97F
SHERIDAN       CLOUDY    43  22  43 S3        29.89F
BUFFALO        CLOUDY    40  19  43 SE6       29.91F
GILLETTE       FAIR      37  20  50 SW15      29.91F WCI  28
HULETT           N/A    N/A N/A N/A MISG        N/A
NEWCASTLE      FAIR      36  18  48 S5        29.97F WCI  32

$$
WYZ014>020-022>026-101>103-192100-
CENTRAL WYOMING

CITY           SKY/WX    TMP DP  RH WIND       PRES   REMARKS
BIG PINEY      CLOUDY    31  17  56 CALM      30.08F
PINEDALE       CLOUDY    32  21  64 W3        30.08F
DUBOIS         NOT AVBL
LANDER         FAIR       8   4  83 SE3       29.98F
RIVERTON       FAIR      11   9  92 S3        30.00F
CASPER         FAIR      31  21  66 SW23G30   29.98F WCI  18
DOUGLAS        FAIR      41  20  43 W16       29.97F

$$
WYZ021-027>030-104>119-192100-
SOUTHERN WYOMING

CITY           SKY/WX    TMP DP  RH WIND       PRES   REMARKS
EVANSTON       CLOUDY    34  21  59 SW12      30.11F WCI  25
KEMMERER       CLOUDY    32  21  64 W8        30.10S WCI  25
FORT BRIDGER   CLOUDY    37  21  53 W23G30    30.11F WCI  25
ROCK SPRINGS   FAIR      33  20  58 W17       30.08F WCI  22
DIXON          CLOUDY    27  23  86 W15       30.19F WCI  15
RAWLINS        FAIR      29  20  69 SW9G18    30.06F WCI  20
SARATOGA       FAIR      32  21  64 SW13      30.10F WCI  22
LARAMIE        FAIR      31  15  52 W22G29    29.99F WCI  18
CHEYENNE       FAIR      40  14  34 W23G30    29.99F WCI  30
TORRINGTON     FAIR     N/A N/A N/A W20G25    29.97F
PINE BLUFFS    FAIR      43  18  36 W24       29.99F

$$


USA.gov is the U.S. government's official web portal to all federal, state and local government web resources and services.